GFSCGP_850_spd_351.txt.gz
Wind_Speed
4 1 6 8 6 2 3 2 3 3 4 2 6 8 5 14 11 11 16 21 34 39 36 34 34 35 37 35 38 34 33 31 31 31 33 33 34 31 30 29 26 24 24 22
3 7 10 2 3 1 1 1 5 5 8 5 0 9 3 6 7 13 13 15 26 33 32 32 33 36 38 36 40 37 36 34 34 34 33 35 32 32 31 30 31 26 25 27
6 3 5 5 4 5 4 4 4 6 2 2 2 7 6 2 5 13 18 21 17 26 27 26 24 32 37 38 40 40 38 35 35 35 36 35 32 31 38 36 36 35 30 29
4 3 6 5 8 9 4 8 9 6 6 3 3 4 5 5 7 6 23 26 30 28 25 31 29 25 37 41 39 39 39 35 32 39 39 39 38 36 37 45 44 38 34 33
4 5 6 4 4 8 11 4 11 4 2 4 0 2 7 3 6 11 17 28 33 33 28 31 33 33 32 41 41 40 40 39 37 37 43 40 38 35 33 33 40 45 40 38
6 3 2 6 2 7 5 4 7 4 4 1 7 6 6 5 8 6 9 23 22 21 26 28 29 32 32 37 43 43 41 41 43 42 40 41 37 33 34 33 35 41 44 44
6 4 4 6 4 4 5 6 3 4 4 5 2 3 9 6 8 9 10 13 12 14 18 22 27 31 33 37 40 45 42 44 46 48 43 41 38 35 35 34 37 39 44 44
1 6 1 2 5 5 2 5 5 3 2 5 1 5 6 6 12 24 21 17 15 14 14 17 20 24 25 29 34 38 42 45 47 51 46 42 39 37 36 35 35 41 40 31
4 5 6 3 5 6 1 3 4 5 2 2 3 7 7 3 4 8 11 21 22 16 13 13 12 14 16 24 31 36 37 40 43 49 45 42 41 39 38 37 34 36 34 28
3 2 3 7 5 2 4 4 2 4 1 3 5 5 5 6 9 7 8 22 18 16 12 10 7 3 5 9 17 27 31 33 34 37 38 42 41 40 40 38 35 38 31 16
4 3 7 3 3 3 5 3 7 5 4 5 1 6 5 9 10 11 5 21 22 18 15 10 8 8 9 11 15 20 26 28 29 31 35 34 35 34 39 43 41 43 44 42
2 5 3 8 3 5 3 3 4 5 6 2 5 6 6 8 7 12 13 23 21 19 15 12 9 9 8 9 14 18 19 23 24 28 29 28 28 30 34 37 23 20 40 42
7 0 3 10 7 5 3 2 5 4 3 4 4 6 5 4 6 16 23 24 21 18 16 14 13 11 9 10 11 13 14 16 18 25 31 29 23 23 29 32 29 26 23 33
9 3 6 6 8 2 4 3 2 5 2 3 6 6 4 4 7 10 21 24 22 20 20 17 15 13 12 10 11 13 13 15 18 20 21 22 19 19 26 27 31 21 22 31
4 3 3 5 6 3 5 8 3 5 6 5 9 7 8 11 10 21 26 23 22 20 20 20 17 16 14 13 15 15 14 15 17 17 15 16 14 14 22 20 22 18 23 27
3 1 5 4 6 5 6 9 9 6 5 6 6 9 8 16 18 18 22 19 18 21 21 20 19 17 16 17 18 16 16 16 16 17 14 7 8 11 13 18 17 15 18 28
2 6 3 6 2 3 7 7 7 6 5 5 5 9 6 6 7 12 15 17 19 17 17 19 18 15 15 17 17 17 16 16 17 17 11 9 6 13 7 13 11 13 21 24
6 5 4 4 3 5 9 5 8 8 6 7 5 6 14 14 20 17 16 17 15 14 14 14 14 15 17 18 19 18 16 16 17 16 12 7 10 12 13 13 13 16 17 16
5 4 2 2 3 6 8 8 6 8 9 7 6 3 8 11 10 9 15 16 15 14 13 13 13 14 15 16 17 19 17 15 16 14 11 7 11 12 15 14 16 17 11 13
5 4 4 3 3 5 7 8 16 3 6 6 11 9 10 14 4 7 23 22 20 16 15 13 12 14 16 17 15 18 18 16 15 12 10 7 8 11 15 15 14 17 17 16
4 3 2 2 5 7 4 14 6 3 8 5 15 19 21 7 21 14 13 23 20 17 17 16 15 16 16 15 16 17 17 18 13 12 10 9 8 7 10 13 13 13 12 12
5 2 2 1 2 5 12 14 3 6 8 16 21 24 27 29 17 14 12 15 18 20 20 20 18 17 15 16 17 17 21 15 15 13 11 10 8 10 9 11 12 14 16 15
1 6 4 7 5 9 14 8 16 16 7 9 14 15 15 11 10 12 15 18 22 24 23 20 18 16 17 18 20 20 17 17 17 16 12 11 10 11 13 14 14 17 17 15
2 2 1 3 5 7 18 23 19 13 9 6 6 8 8 10 11 13 16 16 14 17 22 23 24 21 20 21 20 20 18 16 17 17 14 14 14 14 15 16 15 15 16 16
4 2 2 5 9 15 14 27 23 19 13 14 14 14 14 15 17 18 19 17 18 19 20 26 29 25 23 22 21 20 17 18 18 18 17 16 16 18 18 16 16 16 17 18
3 4 1 5 20 14 17 28 23 18 19 19 17 16 16 17 19 19 19 20 22 25 26 25 25 28 27 23 22 20 18 17 19 21 20 20 18 19 20 18 19 19 18 18

GFSCGP_850_spd_354.txt.gz
Wind_Speed
2 3 6 7 6 0 2 1 2 4 4 5 7 7 6 12 11 14 25 29 32 33 32 31 32 34 33 32 32 34 34 34 33 34 34 34 33 31 30 30 30 29 28 27
4 5 9 3 6 4 2 2 4 4 2 3 5 8 7 9 9 22 24 26 22 27 33 35 32 32 36 35 35 35 36 34 37 38 38 37 36 36 34 32 32 33 32 29
4 5 3 3 2 3 3 4 3 4 3 1 2 7 2 5 9 12 19 19 18 17 23 24 28 32 33 36 37 37 37 38 34 39 41 41 41 41 39 39 36 36 36 33
5 6 4 4 4 5 3 6 6 2 4 2 2 4 5 4 5 6 15 20 24 24 19 17 22 27 29 31 33 35 37 39 40 33 43 44 43 42 40 41 38 37 39 38
6 3 4 4 5 5 7 2 3 4 4 2 2 3 6 3 5 8 11 19 21 23 23 26 26 29 32 28 29 30 38 41 43 43 38 41 45 42 39 38 40 40 41 40
6 2 5 5 3 6 4 5 8 5 3 3 4 4 5 4 8 4 7 13 16 18 17 18 18 21 25 31 31 31 36 41 44 46 47 45 41 44 42 39 37 38 39 44
6 2 3 4 3 2 4 6 3 3 3 5 4 3 8 5 7 6 9 11 10 9 10 8 10 15 20 24 29 31 33 38 41 47 50 51 49 47 47 43 36 33 38 38
1 6 2 2 5 5 2 6 5 2 2 4 1 4 6 6 12 14 14 11 11 12 8 6 8 10 13 15 19 23 28 33 37 41 44 48 52 52 47 46 40 32 37 36
2 5 5 3 2 4 3 1 4 6 4 2 3 7 10 4 3 5 12 15 17 15 10 8 8 8 6 7 10 16 21 25 28 30 31 35 41 42 44 43 39 37 37 38
5 3 2 6 1 5 2 4 3 4 1 3 5 5 6 5 7 5 7 19 21 17 12 7 5 4 4 7 8 11 16 19 22 24 22 22 23 27 34 37 37 39 37 38
5 3 6 3 4 1 5 3 6 5 4 5 1 6 7 7 7 9 13 22 22 20 14 11 8 6 9 8 8 13 17 19 21 22 22 23 23 25 27 31 34 33 34 38
5 5 1 7 2 1 2 1 4 5 4 1 3 6 2 7 11 17 21 21 23 20 16 11 9 10 12 11 11 13 15 16 18 21 24 26 28 28 27 27 28 29 32 37
7 2 3 9 7 4 4 2 5 5 3 4 4 6 3 8 9 12 17 18 23 22 17 14 12 14 16 13 11 12 12 13 15 19 23 25 26 24 22 21 22 22 23 20
7 4 6 6 7 3 4 3 3 4 3 3 6 7 12 10 10 13 19 21 21 21 18 15 17 18 18 16 14 14 15 14 15 18 20 22 22 23 20 17 17 21 17 10
4 3 5 5 6 4 5 7 5 7 6 5 8 7 12 10 10 19 17 17 18 18 18 18 19 20 20 18 18 19 19 17 17 18 20 21 19 14 14 15 17 17 24 20
2 2 3 4 4 5 6 8 6 7 5 7 6 8 10 19 12 10 16 18 20 21 18 18 19 22 22 20 21 21 22 19 19 18 19 20 15 11 11 13 14 17 19 18
3 6 4 7 3 5 8 8 7 6 6 6 6 10 3 5 8 17 22 24 23 19 17 19 21 21 20 20 19 21 23 23 21 20 18 18 13 11 16 15 12 15 15 16
6 5 3 3 3 4 8 5 6 7 8 7 7 8 8 12 19 22 22 20 19 18 17 18 18 16 16 17 18 21 23 24 21 21 18 17 14 9 12 14 13 14 12 11
3 5 2 3 4 6 6 6 5 3 7 5 7 8 4 3 8 16 20 20 19 17 16 17 17 17 17 17 19 22 23 23 22 21 19 15 11 11 14 16 14 13 13 16
6 5 4 3 2 5 5 8 14 3 4 5 5 7 5 8 2 9 16 19 19 19 19 20 21 20 20 20 20 22 21 22 24 19 17 15 10 11 15 16 16 16 18 13
1 2 3 3 4 6 6 17 9 4 6 26 19 20 14 6 13 2 7 8 19 23 23 25 25 25 22 20 22 23 23 23 20 18 17 15 13 10 14 16 17 16 17 16
6 4 4 2 1 5 6 6 3 6 21 24 23 20 18 25 13 8 13 11 12 16 22 27 26 25 24 23 25 25 26 23 18 19 18 16 14 11 12 12 14 15 15 16
2 6 4 7 6 3 7 6 18 22 21 25 21 21 15 16 17 13 14 15 16 21 25 24 25 28 27 27 27 28 27 22 21 21 21 17 15 13 13 13 14 14 15 14
2 2 1 2 3 6 19 14 22 28 24 22 19 17 11 13 13 16 18 19 21 22 23 23 24 25 28 31 28 28 27 22 22 22 22 19 17 16 15 15 15 14 17 17
3 3 0 5 8 16 9 21 23 27 24 24 21 18 16 15 17 18 20 21 20 20 23 25 28 30 30 29 31 29 26 22 25 21 20 21 18 19 17 17 19 19 19 18
4 1 0 5 18 11 19 27 19 13 15 14 12 11 9 10 11 12 15 17 18 20 22 23 24 25 26 29 30 30 31 27 25 23 21 24 22 21 21 20 20 21 21 22

GFSCGP_850_spd_357.txt.gz
Wind_Speed
3 2 2 3 4 1 1 1 4 3 3 5 7 13 10 11 16 15 15 17 20 22 20 21 23 26 26 28 29 29 29 30 30 30 30 31 29 27 27 25 24 25 28 31
3 2 6 3 6 6 3 5 4 4 4 5 6 9 7 9 12 14 16 17 21 22 22 23 24 26 30 32 31 31 32 32 34 34 34 35 34 33 31 31 30 29 30 31
5 3 5 3 3 4 5 5 2 1 3 2 8 5 4 1 6 7 13 16 17 21 22 21 28 29 32 33 34 35 35 34 34 35 37 38 39 40 40 38 37 34 33 34
5 4 3 4 4 6 1 4 2 3 3 2 3 3 3 1 6 7 9 13 16 18 20 19 14 22 24 26 28 31 34 36 36 36 40 41 43 43 41 40 39 39 38 36
4 4 5 4 2 6 4 3 3 3 4 1 1 3 0 0 6 9 11 14 15 16 17 17 17 19 20 21 25 25 25 29 34 39 40 43 42 43 44 45 43 39 35 38
9 4 4 3 1 4 8 4 7 5 1 1 1 4 1 4 5 7 9 11 13 13 12 12 10 12 13 15 19 23 26 26 29 34 40 45 48 47 44 44 43 40 35 27
6 4 3 4 4 3 2 2 2 0 1 3 2 4 4 4 7 8 9 11 11 7 4 3 3 4 5 9 13 16 20 23 25 28 34 39 46 50 49 48 48 41 38 34
4 4 1 4 2 2 1 2 2 3 4 3 3 3 1 4 6 13 14 11 9 8 7 5 4 2 2 6 7 7 10 13 16 19 25 30 34 40 45 48 50 48 43 42
1 2 3 1 3 2 4 2 2 3 1 3 0 3 10 3 4 5 10 12 15 11 10 8 6 5 3 2 3 7 11 14 14 14 14 15 19 25 30 33 38 43 45 43
3 3 1 3 2 8 3 6 2 1 3 5 1 4 5 8 11 8 10 18 19 13 10 8 8 7 5 4 5 5 11 13 15 16 18 18 16 17 20 23 26 30 35 39
5 2 1 3 5 5 1 1 4 2 3 5 7 4 3 4 8 10 16 21 19 13 12 12 12 9 6 6 8 9 9 12 15 18 19 21 22 22 23 24 25 27 30 34
4 2 2 3 1 1 1 2 2 4 1 1 3 5 4 5 10 11 18 20 23 17 13 16 16 11 8 7 9 12 13 13 15 15 19 22 24 25 24 23 21 23 26 27
8 2 3 2 3 3 3 3 3 3 2 4 5 5 2 14 14 17 17 19 16 18 19 20 17 13 9 9 11 14 14 14 16 16 19 22 23 24 25 23 16 15 16 20
8 3 4 6 4 1 3 5 5 5 6 11 10 16 15 13 14 19 18 16 12 15 20 21 18 13 10 12 14 15 17 17 18 20 20 21 23 25 25 19 12 12 12 15
3 3 3 5 6 4 7 9 6 8 14 9 18 16 17 15 13 20 17 9 11 15 21 19 15 11 12 15 17 17 19 19 22 22 22 22 24 25 24 16 8 10 12 20
1 2 3 5 6 9 10 11 12 13 14 15 17 16 17 20 14 17 14 9 11 13 14 15 12 12 12 15 18 20 19 21 24 25 24 23 24 24 21 14 10 9 14 18
2 4 4 13 4 6 12 11 12 9 8 10 10 14 12 12 14 17 15 12 13 13 14 13 13 12 13 15 17 20 19 21 26 27 26 24 22 23 18 15 13 12 12 16
3 2 1 7 3 11 4 4 2 5 9 6 9 14 15 13 19 21 16 13 15 14 15 14 11 12 15 17 18 20 20 22 27 26 26 24 21 22 16 14 15 12 15 18
2 3 2 4 5 6 2 3 4 3 0 12 12 16 20 15 11 15 11 14 17 14 14 13 13 16 20 21 22 25 23 23 26 26 24 25 20 20 14 14 16 16 16 15
4 2 4 3 5 9 3 7 7 3 5 17 15 16 18 13 9 10 14 9 13 12 13 16 18 22 25 25 25 27 25 26 26 25 22 24 21 19 16 15 17 16 15 16
3 2 7 6 7 5 3 9 5 5 7 23 21 21 19 9 13 9 13 12 7 8 11 15 21 26 29 29 28 27 27 28 27 22 21 25 23 19 17 16 18 17 17 17
6 5 4 2 4 7 7 0 5 7 12 17 18 18 18 19 18 18 22 17 11 11 13 15 19 21 23 25 29 29 30 30 31 20 22 24 25 21 18 16 17 18 17 19
4 4 4 5 0 2 5 5 9 11 12 16 19 22 17 18 16 17 15 16 16 18 18 19 21 23 25 27 30 32 32 33 32 22 23 22 24 23 20 17 17 17 17 17
2 1 2 3 3 7 15 9 10 17 20 22 20 18 13 14 16 16 17 17 19 19 19 19 22 25 28 30 31 32 34 33 33 25 24 22 22 23 20 19 18 19 18 18
3 4 2 4 7 15 7 11 18 18 12 14 13 12 11 11 12 14 15 18 19 20 22 24 24 30 30 31 31 31 34 33 21 25 19 17 24 25 22 20 20 21 18 19
4 2 2 3 8 5 15 16 12 11 12 13 13 14 15 15 16 18 21 22 24 26 28 32 33 34 36 37 37 33 32 33 27 19 22 16 29 29 26 22 22 22 20 20

GFSCGP_850_spd_360.txt.gz
Wind_Speed
1 9 5 7 2 2 3 2 2 5 1 5 2 4 4 9 10 11 12 16 16 17 16 17 19 20 20 20 21 22 23 25 25 25 23 23 22 19 18 19 20 21 23 23
8 6 5 2 0 2 2 4 8 7 3 4 5 7 7 7 8 12 11 12 14 16 17 18 19 20 22 23 24 25 26 26 28 28 27 24 22 22 20 20 22 24 24 25
6 5 3 3 2 5 6 8 7 7 2 3 5 11 10 8 5 7 10 9 11 13 15 16 18 20 21 24 25 25 26 27 28 29 25 25 26 25 26 27 27 27 29 27
2 2 4 3 3 6 8 6 5 4 6 5 6 8 6 6 8 8 8 10 11 12 13 13 15 15 21 21 20 22 25 26 28 31 30 32 30 33 36 28 25 26 29 33
6 6 7 5 4 3 7 3 4 2 3 7 7 7 10 7 9 10 12 11 10 9 11 11 13 14 13 14 16 18 20 21 22 25 29 29 33 32 27 28 37 34 33 31
9 7 7 4 2 4 3 4 3 4 4 3 6 8 9 12 9 11 11 10 9 9 9 10 11 11 11 11 12 13 14 15 16 19 22 26 32 34 29 28 28 31 36 32
5 7 2 5 9 6 8 14 5 3 4 9 5 6 7 6 5 5 7 11 11 10 11 11 12 11 10 10 8 9 10 10 11 14 16 19 22 24 29 31 29 31 30 33
4 9 6 4 5 7 3 9 5 4 4 5 4 1 7 3 2 7 9 12 9 12 14 13 12 12 11 8 5 3 1 4 9 9 10 12 15 18 20 24 26 27 28 30
5 6 4 1 4 5 6 5 9 9 6 7 4 3 9 6 3 3 6 12 17 16 15 14 14 13 12 10 7 3 3 8 13 14 14 14 15 15 18 21 25 25 27 27
4 3 3 3 4 5 7 4 8 3 5 7 3 5 3 5 8 9 8 9 14 14 14 15 15 15 12 12 8 5 6 7 11 13 15 18 19 19 19 20 23 25 26 27
5 6 7 7 6 7 2 5 2 6 5 9 9 4 7 4 9 12 15 13 13 16 15 17 16 15 14 11 7 4 7 9 12 14 15 16 20 21 23 22 21 21 23 25
6 4 4 6 4 0 4 4 9 5 5 2 7 12 3 3 11 14 17 19 19 15 17 17 18 17 14 11 7 5 7 11 14 14 15 17 20 21 20 20 20 20 22 22
5 7 7 6 11 6 5 0 6 7 8 11 8 9 3 11 16 13 16 16 17 18 14 18 19 16 12 9 7 5 8 12 15 16 17 19 21 22 22 25 23 21 20 20
3 9 9 10 12 8 11 7 6 11 9 12 13 16 13 11 11 13 16 19 19 13 11 16 18 15 11 9 7 6 8 11 15 17 19 21 23 24 24 25 23 18 17 16
5 10 7 13 9 9 13 14 14 15 15 16 18 18 17 13 14 17 17 17 15 10 7 13 16 13 8 7 6 7 9 12 15 18 22 23 23 26 25 25 22 18 15 15
3 7 6 13 15 14 15 19 19 19 18 17 16 14 11 19 17 14 16 15 12 8 7 11 12 10 8 7 6 9 11 16 17 19 22 21 25 26 25 27 25 19 15 15
5 7 8 15 18 11 16 18 10 11 11 10 10 13 12 13 16 17 18 17 14 9 7 10 10 10 9 7 10 11 12 14 18 21 22 23 23 22 22 24 24 18 16 13
6 6 7 12 12 17 3 6 5 6 7 7 6 9 12 15 19 21 13 15 15 11 8 9 9 9 7 9 13 13 14 17 21 22 20 22 20 22 21 23 22 17 17 16
6 7 8 8 12 14 13 3 3 5 2 7 9 12 19 22 24 20 14 17 14 11 9 9 7 6 8 14 14 14 19 18 19 21 19 20 20 21 20 19 18 17 16 15
3 4 8 12 13 14 4 5 6 2 10 10 15 18 22 25 15 12 22 17 15 12 9 9 9 9 13 18 17 18 20 18 21 18 19 20 21 22 20 21 21 18 18 19
9 7 11 12 15 11 7 4 4 10 6 19 21 23 23 13 16 21 18 16 16 13 12 11 12 13 15 17 17 19 20 24 19 19 21 22 22 22 20 20 19 16 18 19
13 13 11 11 10 16 7 4 5 8 14 16 18 18 19 20 20 18 16 14 11 12 14 14 14 15 16 15 15 17 23 25 20 19 22 19 18 18 14 17 17 14 15 18
8 7 7 7 5 4 6 8 7 8 11 15 18 19 19 19 19 18 17 15 15 15 15 14 14 16 17 17 18 23 37 27 23 18 18 16 15 10 17 15 18 14 14 18
2 2 5 3 6 4 10 7 7 12 12 12 12 12 12 13 13 14 14 15 16 17 18 19 21 22 23 24 27 25 21 23 22 19 18 22 20 28 23 20 13 16 14 15
5 3 2 8 12 11 6 12 12 13 10 10 10 10 12 14 14 15 17 19 20 21 22 23 24 25 26 26 25 27 27 26 25 23 21 28 29 17 21 23 13 16 16 15
1 4 7 4 7 6 12 11 11 11 10 11 13 14 14 15 18 19 21 21 23 24 25 26 26 27 27 26 26 27 26 24 24 24 22 20 23 17 15 19 14 16 19 19